Total_Precipitation_Accumulation
0.02 0.06 0.13 0.19 0.17 0.11 0.07 0.05 0.06 0.08 0.15 0.25 0.43 0.54 0.59 0.58 0.59 0.56 0.50 0.52 0.56 0.64 0.69 0.75 0.80 0.79 0.79 0.87 0.88 0.91 1.07 1.18 1.22 1.22 1.28 1.41 1.50 1.48 1.53 1.55 1.52 1.65 1.72 1.68
0.04 0.06 0.08 0.12 0.14 0.10 0.07 0.06 0.06 0.08 0.17 0.30 0.48 0.54 0.60 0.58 0.54 0.54 0.60 0.61 0.69 0.75 0.79 0.80 0.81 0.89 0.93 0.95 0.98 1.13 1.48 1.62 1.59 1.58 1.61 1.62 1.63 1.63 1.70 1.77 1.93 1.97 1.89 1.83
0.05 0.07 0.09 0.15 0.13 0.11 0.09 0.08 0.10 0.14 0.25 0.33 0.46 0.62 0.71 0.64 0.52 0.51 0.52 0.58 0.65 0.79 0.89 0.87 0.84 0.88 0.98 1.06 1.14 1.27 1.51 1.63 1.66 1.66 1.69 1.79 1.82 1.84 1.89 2.00 2.07 2.11 2.15 2.10
0.11 0.12 0.18 0.17 0.16 0.16 0.14 0.15 0.19 0.29 0.40 0.44 0.48 0.56 0.61 0.52 0.50 0.53 0.55 0.65 0.75 0.79 0.90 0.97 1.01 1.05 1.17 1.32 1.46 1.52 1.63 1.79 1.86 1.83 1.84 1.89 1.90 1.85 1.87 1.99 2.02 1.99 1.94 1.87
0.22 0.21 0.20 0.19 0.22 0.24 0.23 0.30 0.35 0.49 0.60 0.67 0.66 0.64 0.73 0.67 0.62 0.63 0.72 0.81 0.96 1.10 1.10 1.14 1.25 1.34 1.40 1.58 1.70 1.73 1.75 1.94 2.05 2.12 2.20 2.13 2.03 2.02 2.02 2.02 1.89 1.79 1.70 1.67
0.34 0.36 0.36 0.30 0.34 0.33 0.36 0.61 0.59 0.67 0.80 0.87 0.87 1.05 1.10 0.88 0.84 0.76 0.75 0.84 0.94 1.14 1.28 1.28 1.43 1.52 1.55 1.57 1.63 1.70 1.71 1.82 1.98 2.09 2.26 2.36 2.28 2.27 2.21 2.11 2.00 1.91 1.82 1.80
0.43 0.47 0.43 0.40 0.38 0.40 0.75 1.03 0.93 0.93 0.96 1.04 1.16 1.13 1.06 0.91 0.92 0.97 0.89 0.85 0.88 0.96 1.12 1.22 1.30 1.36 1.48 1.53 1.51 1.60 1.62 1.61 1.76 1.96 2.14 2.27 2.36 2.33 2.34 2.26 2.14 1.94 1.79 1.76
0.58 0.73 0.83 0.58 0.48 0.71 1.01 1.01 1.17 1.11 1.10 1.18 1.22 1.22 1.19 1.13 1.09 1.02 0.96 0.90 0.92 0.97 1.04 1.12 1.24 1.43 1.58 1.61 1.61 1.63 1.67 1.76 1.86 2.02 2.10 2.09 2.14 2.21 2.29 2.24 2.19 2.08 1.84 1.62
0.89 1.04 0.96 0.70 0.72 0.81 0.85 1.03 1.13 1.14 1.16 1.20 1.21 1.19 1.10 0.99 0.99 1.06 0.99 0.97 0.93 0.97 1.08 1.24 1.40 1.61 1.82 1.84 1.85 1.85 1.86 1.91 1.96 2.04 2.10 2.14 2.12 2.09 2.09 2.02 1.89 1.81 1.69 1.59
1.19 1.33 1.12 0.94 0.87 0.89 0.99 1.11 1.20 1.29 1.35 1.27 1.14 1.05 1.04 1.00 0.97 1.05 1.06 1.01 0.97 0.95 1.02 1.22 1.34 1.45 1.66 1.78 1.81 1.92 1.87 1.81 1.75 1.74 1.76 1.80 1.85 1.87 1.89 1.85 1.79 1.70 1.59 1.55
1.52 1.74 1.60 1.39 1.15 1.04 1.17 1.34 1.49 1.51 1.44 1.33 1.27 1.23 1.26 1.21 1.08 1.01 1.01 1.04 1.03 1.05 1.08 1.13 1.20 1.26 1.36 1.50 1.61 1.78 1.87 1.85 1.85 1.81 1.75 1.75 1.80 1.86 1.75 1.71 1.72 1.61 1.50 1.55
1.78 1.78 1.85 1.74 1.41 1.27 1.33 1.43 1.50 1.46 1.49 1.48 1.44 1.39 1.26 1.19 1.10 1.01 0.95 0.99 1.06 1.13 1.17 1.15 1.17 1.26 1.36 1.49 1.66 1.86 1.87 1.79 1.80 1.85 1.87 1.85 1.83 1.88 1.91 1.71 1.66 1.54 1.46 1.41
1.49 1.60 1.71 1.63 1.51 1.46 1.48 1.51 1.58 1.54 1.46 1.47 1.42 1.35 1.25 1.17 1.11 1.06 1.06 1.08 1.17 1.22 1.18 1.12 1.13 1.23 1.35 1.50 1.68 1.82 1.84 1.84 1.87 1.87 1.90 1.85 1.73 1.67 1.71 1.63 1.46 1.35 1.31 1.23
1.51 1.61 1.79 1.80 1.73 1.62 1.68 1.73 1.77 1.72 1.60 1.50 1.39 1.31 1.28 1.31 1.28 1.22 1.20 1.23 1.24 1.18 1.08 1.05 1.08 1.09 1.18 1.31 1.52 1.71 1.75 1.81 1.87 1.88 1.85 1.80 1.70 1.62 1.56 1.54 1.42 1.27 1.17 1.10
1.51 1.50 1.64 1.64 1.67 1.66 1.77 1.80 1.78 1.76 1.68 1.56 1.40 1.29 1.20 1.24 1.39 1.44 1.43 1.44 1.33 1.20 1.11 1.04 0.99 0.94 0.97 1.06 1.19 1.37 1.46 1.44 1.46 1.50 1.52 1.48 1.40 1.33 1.27 1.23 1.22 1.21 1.09 0.94
1.31 1.47 1.51 1.56 1.54 1.49 1.53 1.57 1.64 1.62 1.53 1.44 1.33 1.26 1.17 1.14 1.19 1.29 1.40 1.41 1.40 1.31 1.17 1.08 1.09 1.04 0.97 1.04 1.12 1.16 1.19 1.27 1.19 1.12 1.13 1.15 1.11 1.05 1.00 1.02 1.07 1.14 1.09 0.92
1.34 1.51 1.51 1.50 1.50 1.46 1.38 1.42 1.49 1.49 1.42 1.35 1.23 1.10 1.03 1.06 1.17 1.25 1.27 1.21 1.13 1.09 1.04 0.98 0.99 1.00 0.99 1.06 1.08 1.04 0.97 0.93 0.93 0.83 0.83 0.92 0.97 0.94 0.91 0.95 1.02 1.09 1.02 0.87
1.20 1.30 1.32 1.29 1.24 1.30 1.30 1.33 1.37 1.28 1.29 1.24 1.10 1.00 0.97 1.09 1.23 1.25 1.14 1.04 1.00 0.98 0.94 0.85 0.77 0.73 0.76 0.80 0.79 0.74 0.68 0.67 0.64 0.61 0.66 0.72 0.75 0.82 0.89 0.95 1.00 1.03 0.95 0.83
1.06 1.04 1.02 1.00 0.92 0.99 1.07 1.12 1.19 1.17 1.15 1.09 1.00 1.01 1.03 1.10 1.16 1.13 0.98 0.92 0.91 0.87 0.78 0.69 0.69 0.60 0.57 0.56 0.59 0.57 0.58 0.60 0.60 0.58 0.63 0.63 0.66 0.74 0.89 0.98 1.00 1.00 0.96 0.92
0.91 0.83 0.78 0.78 0.74 0.76 0.87 0.93 0.89 0.92 0.94 0.93 0.99 1.04 1.02 1.02 0.99 0.99 0.93 0.90 0.84 0.72 0.62 0.57 0.55 0.57 0.56 0.53 0.53 0.51 0.54 0.58 0.61 0.59 0.57 0.60 0.65 0.68 0.73 0.78 0.85 0.90 0.91 0.90
0.80 0.74 0.72 0.76 0.75 0.70 0.72 0.72 0.69 0.72 0.77 0.80 0.88 0.94 0.93 0.93 0.90 0.92 1.01 0.99 0.83 0.67 0.60 0.61 0.53 0.51 0.50 0.54 0.52 0.50 0.54 0.59 0.63 0.68 0.66 0.65 0.67 0.68 0.71 0.72 0.75 0.78 0.83 0.88
0.89 0.78 0.73 0.73 0.76 0.75 0.71 0.68 0.64 0.61 0.66 0.72 0.72 0.77 0.87 0.93 0.89 0.90 0.95 0.99 0.89 0.88 0.68 0.57 0.51 0.50 0.53 0.54 0.55 0.61 0.62 0.64 0.69 0.74 0.75 0.74 0.76 0.80 0.83 0.83 0.83 0.80 0.83 0.88
0.93 0.86 0.83 0.83 0.85 0.84 0.74 0.69 0.66 0.65 0.66 0.68 0.68 0.76 0.85 0.93 0.93 0.93 0.91 0.85 0.80 0.89 0.80 0.69 0.68 0.64 0.62 0.57 0.66 0.75 0.73 0.71 0.71 0.73 0.76 0.76 0.79 0.82 0.85 0.86 0.92 0.90 0.89 0.93
1.01 0.92 0.87 0.83 0.77 0.80 0.79 0.74 0.70 0.67 0.67 0.68 0.69 0.74 0.86 0.94 0.93 0.86 0.86 0.84 0.79 0.77 0.75 0.80 0.82 0.79 0.75 0.65 0.70 0.76 0.78 0.80 0.82 0.78 0.73 0.73 0.76 0.78 0.85 0.88 0.90 0.90 0.90 0.91
1.10 0.99 0.87 0.79 0.76 0.77 0.79 0.79 0.73 0.66 0.64 0.68 0.67 0.70 0.76 0.85 0.93 0.88 0.82 0.75 0.71 0.67 0.71 0.77 0.79 0.86 0.83 0.80 0.78 0.77 0.78 0.86 0.92 0.88 0.83 0.82 0.85 0.87 0.88 0.86 0.81 0.79 0.81 0.85
1.16 1.06 0.95 0.85 0.77 0.75 0.78 0.82 0.82 0.79 0.73 0.72 0.70 0.72 0.77 0.78 0.79 0.83 0.87 0.82 0.74 0.71 0.74 0.75 0.75 0.80 0.81 0.86 0.91 0.90 0.89 0.92 0.92 0.89 0.89 0.92 0.96 0.96 0.86 0.75 0.69 0.68 0.68 0.70
1.06 1.02 0.95 0.86 0.78 0.73 0.73 0.77 0.81 0.81 0.79 0.80 0.77 0.80 0.89 0.89 0.86 0.84 0.80 0.76 0.70 0.68 0.71 0.70 0.68 0.68 0.65 0.65 0.69 0.72 0.74 0.77 0.82 0.87 0.91 0.94 0.92 0.88 0.80 0.73 0.67 0.65 0.65 0.63